Location: High Meadows Obseravatory
(40.7417°N, 111.5713°W)
Time: 23:25:49
(UTC-06:00)

Envisat - Visible Passes

Search period start: 25 October 2021 00:00
Search period end: 04 November 2021 00:00
Orbit: 764 x 766 km, 98.2° (Epoch: 25 October)

Date Brightness Start Highest point End Pass type
(mag) Time Alt. Az. Time Alt. Az. Time Alt. Az.
25 Oct 4.2 06:05:05 10° NNE 06:09:57 44° E 06:14:46 10° S visible
25 Oct 6.1 19:00:20 10° SW 19:03:27 16° W 19:06:36 10° NW visible
26 Oct 5.6 05:29:10 10° NE 05:32:51 20° E 05:36:30 10° SE visible
26 Oct 3.2 07:07:14 10° N 07:12:05 47° WNW 07:16:54 10° SW visible
27 Oct 3.1 06:30:13 10° NNE 06:35:19 79° ESE 06:40:23 10° S visible
28 Oct 4.6 05:53:44 10° NNE 05:58:22 34° E 06:02:57 10° SSE visible
29 Oct 5.9 05:18:14 10° NE 05:21:12 16° E 05:24:10 10° SE visible
29 Oct 3.0 06:55:36 10° N 07:00:36 60° WNW 07:05:34 10° SSW visible
30 Oct 3.5 06:18:44 10° NNE 06:23:46 62° E 06:28:47 10° S visible
30 Oct 6.5 19:15:45 10° WSW 19:17:25 11° W 19:19:06 10° WNW visible
31 Oct 5.1 05:42:27 10° NE 05:46:46 27° E 05:51:02 10° SSE visible
31 Oct 3.6 07:21:14 10° N 07:25:47 34° WNW 07:30:19 10° SW visible
01 Nov 6.1 05:07:41 10° ENE 05:09:32 12° E 05:11:23 10° ESE visible
01 Nov 2.9 06:44:01 10° N 06:49:06 76° WNW 06:54:09 10° SSW visible
02 Nov 4.0 06:07:18 10° NNE 06:12:13 48° E 06:17:05 10° S visible
02 Nov 6.2 19:02:52 10° SW 19:05:45 15° W 19:08:39 10° NW visible
03 Nov 5.4 05:31:17 10° NE 05:35:08 21° E 05:38:58 10° SE visible
03 Nov 3.3 07:09:31 10° N 07:14:19 43° WNW 07:19:06 10° SW visible
